Location: Unspecified
(22.6800°N, 112.2000°E)
Time: 08:24:01
(UTC+08:00)

Courier 1B Rocket - Pass Details

Date: 06 August 2021
Orbit: 920 x 1202 km, 28.3° (Epoch: 22 September)

Event Time Altitude Azimuth Distance (km) Brightness Sun altitude
Rises 21:51:47 0° 235° (SW) 4,081 8.4 -33.7°
Reaches altitude 10° 21:54:44 10° 230° (SW) 3,104 7.7 -34.2°
Enters shadow 21:57:12 22° 224° (SW) 2,328 6.9 -34.6°
